Погода в Словечно

Украина / Житомирская область     51°22′52″N   28°21′15″E
темп.,
°C
ветер,
м/с
пор.,
м/с
влажн.,
%
обл.,
%
осадки,
мм/ч
давл.,
гПа
погр.,
м
15 апреля, чт
чт1500:00+7всв1193100 0.1 101413
03:00+7ссв2293100 0.2 101465
06:00+7с2595100 0.3 1014159
09:00+7ссз149399 0.6 1014182
12:00+11с3476100 0.4 1013750
15:00+12ссз467399 1.0 10121008
18:00+9с3890100 0.9 1012555
21:00+7сз2792100 1.0 1012442
16 апреля, пт
пт1600:00+6сз3795100 0.0 1011413
03:00+6сз2596100 0.9 1011413
06:00+6сз3596100 1.3 1011388
09:00+6зсз3594100 2.3 1011376
12:00+6з3595100 2.2 1012357
15:00+5зюз3696100 6.1 1014270
18:00+5з3596100 1.9 1015254
21:00+4з2596100 2.3 1016302
17 апреля, сб
сб1700:00+4з2597100 0.1 1017329
03:00+4зюз2498100 0.1 1018318
06:00+3зюз2397100 0.1 1019263
09:00+4юз2292100 0.1 1020310
12:00+5юз2286100 0.0 1021376
15:00+7ю237698 0.0 1021683
18:00+8ююз236994 0.0 1021938
21:00+5юз11855 0.0 102211
18 апреля, вс
вс1800:00+3зюз11905 0.0 102311
03:00+3з119144 0.0 102210
06:00+2вюв119276 0.0 102310
09:00+8вюв12717 0.0 1023248
12:00+13в12487 0.0 10221383
15:00+14вюв3443100 0.0 10221955
18:00+13юв355484 0.0 1021980
21:00+11в2863100 0.0 1021191
19 апреля, пн
пн1900:00+9в2680100 0.0 1021126
03:00+7в2683100 0.0 1021128
06:00+8всв3979100 0.0 1019279
09:00+9всв41083100 0.4 1018387
12:00+12вюв5977100 1.3 1017976
15:00+10вюв51089100 3.9 10151184
18:00+9в51193100 4.0 1014993
21:00+9в51293100 5.1 10121005